Погода в Москве

Погода в Москве : погода сейчас, прогноз погоды и архив. Всё, что Вы хотите узнать о погоде в Москве!

Хотите узнать прогноз погоды в Москве? Тогда Вам сюда: Погода в Москве

Поиск расширенной информации на нашем сайте:

Другие новости

Новости СМИ2

Главная страница сайта

Новости сайта

03.07.2017

Напоминаем, что на нашем специализированном сайте Метеоцентр.Азия вы можете получить высокодетализированные автоматические прогнозы погоды по пунктам России, СНГ и мира в авиационном формате (включающие направление и скорость ветра, видимость, явления погоды, количество и форму облачности, нижнюю и верхнюю границу облачности).


Погода в Москве - сегодня

Время (UTC), дата Ветер
(°,м/с) 
Видим.   Явления Облачность Т
(°С)
Тd
(°С)
f(%) Тe
(°С)
Pmin
(гПа)
dP
(гПа)
Po
(мм)
O2
(г/м3)
Тmin Tmax R s Состояние
почвы
06 15.02.18 100 (В) 4000 м  дымка{снег}  10/4 1000 м средняя 
[Sc|As trans]
-10.3 -12.2 86 -10  1035.3  0.6  761  320  -11.9    0.2  45  равномерный
сухой снег
100% 
09 15.02.18 100 (В) 4000 м  слаб. снег  10/8 1000 м средняя 
[Sc|As trans]
-8.1 -11.3 78 -8  1036  0.9  761  317           
15 15.02.18 130 (ЮВ) 10 км    10/10 600 м 
[Sc]
-7.2 -9.8 82 -7  1036.1  0.2  761  316      0.2     
21 15.02.18 160 (Ю) н/о    10/10 600 м 
[Sc]
-7.2 -9.7 82 -7  1035.5  -0.4  761  316           
00 16.02.18 160 (Ю) н/о    10/10 600 м 
[Sc]
-6.9 -9.2 84 -8  1035.2  -0.2  761  315           
03 16.02.18 160 (Ю) н/о  дымка  10/10 600 м 
[Sc]
-6.8 -8.4 88 -8  1034.5  -0.7  760  315  -7.3         
06 16.02.18 160 (Ю) 4000 м  дымка  10/10 300 м 
[Frnb]
-6.1 -7.5 90 -6  1034  -0.5  760  314  -7.3      45  равномерный
сухой снег
100% 
09 16.02.18 170 (Ю) 10 км    10/10 600 м 
[Sc]
-4.6 -7.1 83 -4  1033.5  -0.3  760  312           
12 16.02.18 150 (ЮВ) 10 км    10/10 600 м 
[Sc]
-4.5 -6.7 85 -4  1032.8  -0.7  759  312           
21 16.02.18 160 (Ю) н/о  дымка{снег}  10/10 300 м 
[Frnb]
-3.9 -5.3 90 -5  1030.5  -0.5  758  310           
06 17.02.18 160 (Ю) 4000 м  слаб. снег  10/10 300 м 
[Frnb]
-4.9 -6.9 86 -6  1027.8  -0.8  755  311  -4.9    0.6  45  равномерный
сухой снег
100% 
09 17.02.18 160 (Ю) 10 км  в посл. час снег  10/10 300 м 
[Frnb]
-3.9 -6.8 80 -5  1026.5  -1.1  755  309           
21 17.02.18 140 (ЮВ) н/о  слаб. ливневой снег  10/10 300 м кучево-дожд. 
[Cb cap]
-5.3 -7.2 86 -7  1023.3  -0.9  752  310           
03 18.02.18 140 (ЮВ) н/о  слаб. снег{ливн. осадки}  10/3 600 м средняя 
[Sc|As op]
-5.6 -6.9 91 -5  1020.9  -1.4  750  309  -5.7       
06 18.02.18 160 (Ю) 4000 м  слаб. снег{ливн. осадки}  10/8 300 м средняя 
[Frnb|As op]
-5.2 -7.2 86 -7  1020.5  -0.3  750  309  -5.7    47  равномерный
сухой снег
100% 
09 18.02.18 130 (ЮВ) 4000 м  слаб. снег  10/6 300 м средняя 
[Frnb|As op]
-3.6 -6.7 79 -5  1019.8  -0.6  750  307           
21 18.02.18 150 (ЮВ) н/о  слаб. снег  10/10 300 м 
[Frnb]
-3.5 -4.9 90 -3  1017.8  -0.7  748  306           
03 19.02.18 тихо ()   н/о  слаб. снег  10/10 300 м 
[Frnb]
-4.3 -5.3 93 -4  1016.4  -0.8  747  306  -4.3    0.5     
06 19.02.18 тихо ()   1000 м  ливневой снег  10/10 300 м кучево-дожд. 
[Cb cap]
-4.2 -5 94 -4  1016.4  0.1  747  306  -4.4    48  равномерный
сухой снег
100% 
09 19.02.18 340 (С) 4000 м  дымка{ливн. осадки}  10/10 300 м 
[Sc]
-3.1 -4.7 89 -3  1016.8  0.4  748  305           
15 19.02.18 340 (С) 4000 м    10/10 600 м 
[Sc]
-3.4 -7.3 74 -3  1018  0.8  748  306         
21 19.02.18 тихо ()   н/о  дымка  10/10 600 м 
[Sc]
-8.7 -10.1 90 -9  1018.4  -0.4  748  312           
03 20.02.18 280 (З) н/о  слаб. ливневой снег  10/10 300 м кучево-дожд. 
[Cb calv]
-7.5 -8.8 90 -7  1018.2  -0.3  748  311  -8.9    0.2     
06 20.02.18 270 (З) 4000 м  в посл. час ливневой снег  9/9 600 м кучево-дожд. 
[Cb calv]
-7.9 -9.5 88 -8  1018.6  0.3  749  312  -8.9    0.7  49  равномерный
сухой снег
100% 
09 20.02.18 310 (СЗ) 10 км    8/8 600 м 
[Sc]
-5.8 -9.4 76 -5  1018.8  0.4  749  309           
Время (UTC), дата Ветер
(°,м/с) 
Видим.   Явления Облачность Т
(°С)
Тd
(°С)
f(%) Тe
(°С)
Pmin
(гПа)
dP
(гПа)
Po
(мм)
O2
(г/м3)
Тmin Tmax R s Состояние
почвы

Для получения пояснительной информации подведите курсор к названию столбца.

ПОГОДА в Москве - архив

Всё, что Вы хотите узнать о погоде в Москве - удобно и подробно!

Выберите нужную дату (начиная с 1 января 2015* года) и нажмите кнопку "Найти".
Будут отображены архивные сводки погоды по пункту Москва, начиная с указанной даты.


Отображать данные в формате CSV (для использования в таблицах Excel)


Внимание! Наш архив погоды предназначен исключительно для личного некоммерческого использования в познавательных целях. Если Вам необходимы официальные справки о состоянии погоды (для производственных, юридических, коммерческих и т.п. целей), обращайтесь в органы Росгидромета.

*Примечание: данная дата относится к архиву по метеостанциям СССР (Россия, СНГ, Балтия).
Архив по метеостанциям Зарубежной Европы и Азии (кроме Китая) хранится 10 дней, по другим регионам земного шара (Китай, Африка, Америка, Австралия, Океания) - 1 день.

Москва - район местоположения метеостанции


Название, широта, долгота, высота метеостанции:
Москва (ВВЦ) 55.8°ш. 37.6°д. 156 м над ур. моря [Российская Федерация]

Дополнительная информация

В oтличие oт бoльшинства пoгoдных сайтoв мы публикуем пoдрoбную метеoинфoрмацию в детальнoм прoфессиoнальнoм фoрмате.

Характеристики температуры и влажнoсти вoздуха измеряются на высoте 2 м в тени вдали oт зданий и деревьев.
Скoрoсть ветра измеряется на высoте 10 м (на урoвне рoста челoвека скoрoсть ветра ниже в 1.5-2 раза). Если метеoстанция нахoдится в гoрoде или в лесу, тo скoрoсть ветра занижена на 2-4 м/с пo сравнению с oткрытым местoм. Скoрoсть ветра над акватoриями крупных рек и oзёр, а также на вершинах хoлмoв на 2-5 м/с выше, чем в oбычных услoвиях.
Атмoсфернoе давление в разных тoчках местнoсти мoжет значительнo oтличаться oт давления на метеoстанции, в зависимoсти oт услoвий рельефа (при пoдъёме на 10 м давление пoнижается примернo на 1 мм рт.ст.).